Current Version              Previous Version:    01  02  03  04  05  06  07  08  09  10  11  12  13  14  15  16  17  18  19  20  21  22  23  24  25  26  27  28  29  30  
   31  32  33  34  35  36  37  38  39  40  41  42  43  44  45  46  47  48  49  50  51  52  53  54  55  56  57  58  59  60  

[Printable]
661
ASUS44 KLUB 010901
RWRTX
WEST TEXAS WEATHER ROUNDUP
NATIONAL WEATHER SERVICE LUBBOCK TX
400 AM CDT MON SEP 01 2014

NOTE: "FAIR" INDICATES FEW OR NO CLOUDS BELOW 12,000 FEET WITH NO
SIGNIFICANT WEATHER AND/OR OBSTRUCTIONS TO VISIBILITY.

TXZ004-006>008-010-012-014-016-OKZ002-011000-
TEXAS PANHANDLE/OKLAHOMA PANHANDLE

CITY           SKY/WX    TMP DP  RH WIND       PRES   REMARKS
AMARILLO       CLEAR     77  57  50 SW20G29   29.87R
BORGER         CLEAR     82  55  39 SW13G22   29.84R
CANADIAN       CLEAR     79  62  56 W6        29.79R
DALHART        CLEAR     64  55  72 N10       29.93R
DUMAS          CLEAR     62  56  80 NW10      29.90R
GUYMON         CLEAR     65  59  81 NW6       29.86R
HEREFORD       CLEAR     76  58  52 S17G24    29.91R
PAMPA          CLEAR     76  56  49 W10       29.86R
PERRYTON       CLEAR     67  62  83 NW10      29.82R
$$

TXZ026-029-035-045-048-011000-
SOUTHERN PANHANDLE/SOUTH PLAINS/ROLLING PLAINS

CITY           SKY/WX    TMP DP  RH WIND       PRES   REMARKS
CHILDRESS      CLEAR     82  64  54 S15       29.81R
SEMINOLE       CLEAR     77  60  56 S10       29.94S
LUBBOCK        PTCLDY    78  61  55 S17       29.90S
PLAINVIEW      CLEAR     76  61  60 SW14      29.89S
SNYDER         CLEAR     77  64  64 S10       29.90F
$$

TXZ052-054-060>062-072-078-127-140-154-169-011000-
PERMIAN BASIN/CONCHO VALLEY/BIG COUNTRY/EDWARDS PLATEAU

CITY           SKY/WX    TMP DP  RH WIND       PRES   REMARKS
ABILENE        CLEAR     80  69  69 S15       29.87S
BIG SPRING     CLEAR     81  63  54 S14       29.92F
BRADY          CLEAR     75  68  78 S8        29.93F
JUNCTION       PTCLDY    77  69  76 S7        29.95S
MIDLAND        CLEAR     81  62  52 S16       29.91S
ODESSA         CLEAR     81  61  50 S15       29.92S
SAN ANGELO     CLEAR     79  69  71 S14G25    29.89F
SONORA         CLEAR     77  70  78 S14       29.98F
SWEETWATER     CLEAR     79  66  65 S17G25    29.92S
WINK           CLEAR     81  62  52 SE16      29.87F
$$

TXZ055-058-074-075-080-082-011000-
FAR WEST/SOUTHWEST MOUNTAINS/TRANS PECOS

CITY           SKY/WX    TMP DP  RH WIND       PRES   REMARKS
ALPINE         CLEAR     76  59  56 SW13      30.09S
DRYDEN           N/A     84  64  50 E6        29.89F
EL PASO        CLEAR     81  45  28 SW5       29.97S
FORT STOCKTON  CLEAR     79  62  56 S17       29.92S
GUADALUPE PASS CLEAR     76  44  32 W13       30.11S
MARFA          CLEAR     63  55  77 NE5       30.10S
PRESIDIO       FAIR      83  60  45 N8        29.91S
$$

TXZ014-016-019-021>030-083-011000
TEXAS TECH WEST TEXAS MESONET/TEXAS PANHANDLE/NORTHERN SOUTH PLAINS

CITY           SKY/WX    TMP DP  RH WIND       PRES   REMARKS
ABERNATHY 5ENE   N/A     77  60  57 S16       29.92S
AMARILLO 9NNE    N/A     78  57  49 W10       29.86R
AMARILLO 7SSE    N/A     77  57  50 S22       29.88R
AMHERST 1NE      N/A     75  57  53 S14       29.92S
BOOTLEG 11WNW    N/A     70  49  46 SW13      29.96R
CANADIAN 6E      N/A     78  62  56 W6        29.78R
CAPROCK CYN SP   N/A     80  62  54 SW28      29.83F
CHILDRESS 2NNE   N/A     81  64  56 S16       29.80R
CLARENDON 2WSW   N/A     80  60  49 S20       29.83F
CLAUDE 12SW      N/A     79  59  50 S16       29.87S
DIMMITT 2NE      N/A     73  56  53 S16       29.92R
FLOYDADA 2NNE    N/A     75  61  60 S17       29.89F
FRIONA 2NE       N/A     74  55  51 S17       29.92S
GOODLETT 3W      N/A     82  63  52 S14       29.79R
HART 3N          N/A     74  58  56 S14       29.91S
HEREFORD 2NW     N/A     74  54  49 S16       29.90R
MCLEAN 1E        N/A     78  59  52 S16       29.81S
MEMPHIS 1NE      N/A     79  63  58 S6        29.81S
MULESHOE 2SSW    N/A     76  56  50 S17       29.92R
OLTON 6S         N/A     75  58  54 S16       29.91S
PALO DURO SP     N/A     78  58  49 SW24      29.87S
PAMPA 2E         N/A     77  58  52 S14       29.84R
PLAINVIEW 1S     N/A     77  61  58 S16       29.89S
SILVERTON 7ESE   N/A     77  61  58 S18       29.87S
TULIA 2ENE       N/A     76  60  57 S17       29.89R
TURKEY 2WSW      N/A     81  63  53 SW23      29.81S
UMBARGER 3NNE    N/A     76  56  50 SW20      29.89S
$$

TXZ033>036-039>041-045>048-011000
TEXAS TECH WEST TEXAS MESONET/SOUTH PLAINS

CITY           SKY/WX    TMP DP  RH WIND       PRES   REMARKS
AIKEN 3WSW       N/A     75  63  64 S14       29.91S
ANDREWS 2NE      N/A     80  59  49 S13       29.93S
ANTON 6SSW       N/A     76  60  58 S16       29.91S
BROWNFIELD 2S    N/A     75  60  58 S13       29.92F
DENVR CTY 7WNW   N/A     74  58  59 S10       29.94S
GAIL 2ESE        N/A     79  63  57 S10       29.90S
LAMESA 2SE       N/A     76  62  63 S10       29.92F
LEVELLAND 4S     N/A     74  58  56 S9        29.93S
LUBBOCK 3WNW     N/A     77  60  54 S14       29.91S
MORTON 1ENE      N/A     74  58  56 S13       29.93S
ODONNELL 1N      N/A     76  61  58 S10       29.92S
PLAINS 3N        N/A     75  59  57 S12       29.95S
RALLS 1SE        N/A     77  62  59 S16       29.91S
REESE CENTER     N/A     76  60  58 S16       29.91S
SEAGRAVES 1SW    N/A     76  60  58 S10       29.93F
SEMINOLE 2NNE    N/A     77  60  54 S10       29.93S
SLATON 2NE       N/A     76  61  58 S18       29.90S
SNYDER 3E        N/A     77  64  63 S12       29.89S
SUNDOWN 8SW      N/A     75  59  57 S13       29.93F
TAHOKA 3NNE      N/A     76  61  57 S13       29.91F
WOLFFORTH 6SSW   N/A     76  60  59 S10       29.92S
$$

TXZ031-032-036>038-042>044-011000-
TEXAS TECH WEST TEXAS MESONET/ROLLING PLAINS

CITY           SKY/WX    TMP DP  RH WIND       PRES   REMARKS
ASPERMONT 3NE    N/A     82  65  56 S12       29.84S
FLUVANNA 3WNW    N/A     77  62  58 S16       29.90S
GRAHAM 5SSW      N/A     78  61  55 S10       29.91S
GUTHRIE 10WSW    N/A     79  64  59 S12       29.84R
HASKELL 1NW      N/A     82  64  54 S15       29.83S
JAYTON 1SSE      N/A     81  64  56 S10       29.85F
KNOX CITY 3NW    N/A     79  63  57 S10       29.82S
LK A HENRY 1NW   N/A     81  64  55 SW16      29.86S
NORTHFIELD 1S    N/A     82  64  54 S14       29.80S
ODELL 4ENE       N/A     79  66  66 SE9       29.81R
PADUCAH 10SW     N/A     80  64  58 S16       29.81S
POST 1NE         N/A     81  61  50 S17       29.87F
RRING SPRGS 3N   N/A     79  64  59 S16       29.85S
SEYMOUR 3NW      N/A     81  65  58 S15       29.81R
SPUR 1W          N/A     78  62  56 S6        29.86S
WEINERT 2NNE     N/A     81  66  60 S17       29.83S
WHITE RVR 6NE    N/A     80  62  55 S18       29.87F
$$

TXZ052-054-060>062-072-078-127-140-154-169-011000-
TEXAS TECH WEST TEXAS MESONET/PERMIAN BASIN/
CONCHO VALLEY/BIG COUNTRY/EDWARDS PLATEAU

CITY           SKY/WX    TMP DP  RH WIND       PRES   REMARKS
JUNCTION 1SSW    N/A     77  70  79 S13       29.95F
MERTZON 3NNE     N/A     77  69  75 S15       29.91F
SAN ANGELO 7NW   N/A     78  67  68 S10       29.91S
STRLNG CT 4WSW   N/A     78  67  68 S12       29.92S
ST LAWRNCE 5SW   N/A     76  62  62 SE15      29.92F
SWEETWATR 11SW   N/A     77  67  71 S17       29.92S
WALL 1E          N/A     78  67  69 S14       29.90S
$$

TXZ055-058-074-075-080-082-011000-
TEXAS TECH WEST TEXAS MESONET/FAR WEST/SOUTHWEST MOUNTAINS/TRANS PECOS

CITY           SKY/WX    TMP DP  RH WIND       PRES   REMARKS
PRSMN GAP BBNP   N/A     83  61  48 S5        29.93F
GUADLPE MTN NP   N/A     78  40  25 W18       30.11S
$$